TimeEDT,TemperatureF,Dew PointF,Humidity,Sea Level PressureIn,VisibilityMPH,Wind Direction,Wind SpeedMPH,Gust SpeedMPH,PrecipitationIn,Events,Conditions,WindDirDegrees,DateUTC
12:32 AM,48.0,43.0,83,29.86,10.0,SSE,5.8,-,N/A,,Overcast,160,2014-05-01 04:32:00
12:51 AM,48.0,42.1,80,29.86,10.0,SE,6.9,-,N/A,,Overcast,130,2014-05-01 04:51:00
1:10 AM,46.9,44.1,90,29.84,2.0,East,5.8,-,0.07,Rain,Rain,100,2014-05-01 05:10:00
1:21 AM,48.0,45.0,89,29.83,5.0,ESE,6.9,-,0.08,Rain,Light Rain,110,2014-05-01 05:21:00
1:51 AM,48.0,45.0,89,29.83,10.0,ESE,4.6,-,0.09,,Overcast,120,2014-05-01 05:51:00
2:51 AM,48.0,45.0,89,29.81,10.0,South,4.6,-,0.02,,Overcast,180,2014-05-01 06:51:00
3:51 AM,46.0,44.1,93,29.78,9.0,Calm,Calm,-,0.02,Rain,Light Rain,0,2014-05-01 07:51:00
4:24 AM,46.0,45.0,96,29.76,9.0,North,-9999.0,-,0.00,Rain,Light Rain,0,2014-05-01 08:24:00
4:38 AM,46.0,45.0,96,29.76,3.0,Calm,Calm,-,0.03,Rain,Rain,0,2014-05-01 08:38:00
4:46 AM,46.4,44.6,93,29.75,2.5,Calm,Calm,-,0.06,Rain,Heavy Rain,0,2014-05-01 08:46:00
4:51 AM,46.0,45.0,96,29.77,2.5,Calm,Calm,-,0.08,Rain,Heavy Rain,0,2014-05-01 08:51:00
4:54 AM,46.0,45.0,96,29.75,3.0,Calm,Calm,-,0.00,Rain,Rain,0,2014-05-01 08:54:00
5:12 AM,46.0,45.0,96,29.75,2.0,Calm,Calm,-,0.05,Rain,Rain,0,2014-05-01 09:12:00
5:22 AM,46.0,45.0,96,29.75,7.0,Calm,Calm,-,0.05,Rain,Light Rain,0,2014-05-01 09:22:00
5:51 AM,46.0,45.0,96,29.77,7.0,Calm,Calm,-,0.09,Rain,Light Rain,0,2014-05-01 09:51:00
6:17 AM,46.0,45.0,96,29.75,10.0,West,5.8,-,0.00,Rain,Light Rain,260,2014-05-01 10:17:00
6:51 AM,46.0,45.0,96,29.76,10.0,SW,5.8,-,0.00,,Overcast,230,2014-05-01 10:51:00
7:51 AM,46.9,46.0,97,29.72,10.0,NW,4.6,-,0.01,Rain,Light Rain,310,2014-05-01 11:51:00
8:51 AM,50.0,48.0,93,29.73,10.0,SW,9.2,-,0.00,,Overcast,230,2014-05-01 12:51:00
9:37 AM,50.0,48.0,93,29.71,6.0,SW,9.2,-,N/A,,Overcast,230,2014-05-01 13:37:00
9:51 AM,50.0,48.0,93,29.73,10.0,SW,10.4,-,N/A,,Overcast,230,2014-05-01 13:51:00
10:51 AM,53.1,51.1,93,29.71,10.0,SW,10.4,-,N/A,,Overcast,230,2014-05-01 14:51:00
11:25 AM,55.0,51.1,86,29.70,10.0,SW,10.4,-,N/A,,Overcast,220,2014-05-01 15:25:00
11:51 AM,55.0,51.1,86,29.71,10.0,WSW,8.1,-,N/A,,Overcast,240,2014-05-01 15:51:00
12:46 PM,55.4,51.8,88,29.69,10.0,SW,10.4,-,N/A,,Overcast,220,2014-05-01 16:46:00
12:51 PM,57.0,51.1,81,29.70,10.0,SW,9.2,-,N/A,,Overcast,230,2014-05-01 16:51:00
1:51 PM,60.1,51.1,72,29.68,10.0,WSW,9.2,-,N/A,,Mostly Cloudy,250,2014-05-01 17:51:00
2:26 PM,55.9,50.0,80,29.68,7.0,West,6.9,-,0.00,Rain,Light Rain,260,2014-05-01 18:26:00
2:31 PM,55.0,51.1,86,29.68,2.5,WSW,10.4,-,0.04,Rain,Light Rain,240,2014-05-01 18:31:00
2:37 PM,54.0,51.1,90,29.69,0.8,SW,10.4,-,0.12,Rain,Heavy Rain,230,2014-05-01 18:37:00
2:44 PM,53.1,52.0,96,29.68,1.0,WSW,6.9,-,0.14,Rain,Rain,240,2014-05-01 18:44:00
2:51 PM,54.0,52.0,93,29.70,3.0,WSW,8.1,-,0.15,Rain,Light Rain,240,2014-05-01 18:51:00
3:04 PM,54.0,52.0,93,29.68,5.0,WSW,6.9,-,N/A,Rain,Light Rain,240,2014-05-01 19:04:00
3:40 PM,53.1,51.1,93,29.68,8.0,WSW,9.2,16.1,N/A,Rain,Light Rain,250,2014-05-01 19:40:00
3:51 PM,53.1,51.1,93,29.69,8.0,WSW,8.1,-,N/A,,Overcast,240,2014-05-01 19:51:00
3:59 PM,53.1,50.0,89,29.68,8.0,WSW,8.1,-,N/A,,Overcast,240,2014-05-01 19:59:00
4:22 PM,52.0,48.9,89,29.68,9.0,WSW,9.2,18.4,N/A,,Overcast,250,2014-05-01 20:22:00
4:33 PM,52.0,50.0,93,29.68,8.0,Variable,6.9,-,N/A,,Overcast,0,2014-05-01 20:33:00
4:51 PM,52.0,48.9,89,29.70,9.0,WSW,5.8,17.3,N/A,,Overcast,250,2014-05-01 20:51:00
5:42 PM,51.1,45.0,80,29.69,10.0,WSW,6.9,-,N/A,,Overcast,240,2014-05-01 21:42:00
5:51 PM,51.1,45.0,80,29.71,10.0,SW,5.8,-,N/A,,Overcast,220,2014-05-01 21:51:00
6:51 PM,48.9,42.1,77,29.73,10.0,WSW,9.2,-,N/A,,Overcast,240,2014-05-01 22:51:00
7:12 PM,48.0,43.0,83,29.71,10.0,SW,9.2,-,N/A,,Overcast,220,2014-05-01 23:12:00
7:51 PM,46.0,39.9,79,29.73,10.0,SW,9.2,-,N/A,,Mostly Cloudy,220,2014-05-01 23:51:00
8:51 PM,45.0,37.9,76,29.73,10.0,SW,6.9,-,N/A,,Overcast,230,2014-05-02 00:51:00
9:51 PM,43.0,37.0,80,29.74,10.0,SW,5.8,-,N/A,,Partly Cloudy,220,2014-05-02 01:51:00
10:51 PM,39.0,35.1,86,29.73,10.0,SSW,4.6,-,N/A,,Clear,210,2014-05-02 02:51:00
11:51 PM,37.9,36.0,93,29.72,10.0,SW,4.6,-,N/A,,Partly Cloudy,220,2014-05-02 03:51:00